Location: Unspecified
(42.2730°N, 83.7130°W)
Time: 14:51:53
(UTC+00:00)

Cosmos 2082 - Pass Details

Date: 14 December 2025
Orbit: 831 x 855 km, 71.0° (Epoch: 17 January)

Event Time Altitude Azimuth Distance (km) Brightness Sun altitude
Rises 23:45:21 0° 336° (NNW) 3,427 7.0 -18.2°
Reaches altitude 10° 23:47:49 10° 337° (NNW) 2,490 6.2 -18.6°
Maximum altitude 23:53:33 82° 66° (ENE) 868 3.6 -19.6°
Drops below altitude 10° 23:59:16 10° 154° (SSE) 2,479 6.0 -20.7°
Sets 00:01:43 0° 155° (SSE) 3,411 6.7 -21.1°
